GW3580 Weather Reports


time (UTC)temp
C
wind
direction
speed
KPH
gust
KPH
rain 1hr
cm
rain 24hr
cm
rain mn
cm
humidity
%
barometer
mb
20260503210347 21 257 3.2 3.2 0.00 0.00 0.00 48 1010.1
20260503205841 20 255 1.6 1.6 0.00 0.00 0.00 50 1010.2
20260503205339 21 242 3.2 3.2 0.00 0.00 0.00 49 1010.2
20260503204835 20 233 6.4 8.0 0.00 0.00 0.00 51 1010.3
20260503204332 20 271 3.2 3.2 0.00 0.00 0.00 51 1010.3
20260503203829 21 353 1.6 1.6 0.00 0.00 0.00 48 1010.2
20260503203327 21 257 0.0 1.6 0.00 0.00 0.00 49 1010.3
20260503202824 21 269 6.4 8.0 0.00 0.00 0.00 48 1010.6
20260503202322 21 27 1.6 3.2 0.00 0.00 0.00 47 1010.5
20260503201820 21 15 1.6 1.6 0.00 0.00 0.00 47 1010.3
20260503201316 20 47 1.6 1.6 0.00 0.00 0.00 48 1010.6
20260503200814 20 258 4.8 6.4 0.00 0.00 0.00 50 1010.8
20260503200309 21 253 6.4 8.0 0.00 0.00 0.00 49 1010.6
20260503195807 21 33 4.8 6.4 0.00 0.00 0.00 48 1010.8
20260503195304 21 245 4.8 6.4 0.00 0.00 0.00 46 1010.9
20260503194801 20 301 4.8 6.4 0.00 0.00 0.00 50 1011.1
20260503194256 20 271 3.2 3.2 0.00 0.00 0.00 51 1011.3
20260503193753 21 244 3.2 3.2 0.00 0.00 0.00 48 1011.1
20260503193249 20 317 0.0 1.6 0.00 0.00 0.00 49 1011.1
20260503192745 21 267 4.8 8.0 0.00 0.00 0.00 48 1011.2
20260503192240 21 285 4.8 6.4 0.00 0.00 0.00 48 1011.1
20260503191737 21 232 6.4 8.0 0.00 0.00 0.00 48 1011.5
20260503191234 21 16 4.8 6.4 0.00 0.00 0.00 48 1011.2
20260503190731 21 238 3.2 3.2 0.00 0.00 0.00 49 1011.5
20260503190228 20 40 3.2 6.4 0.00 0.00 0.00 49 1011.5
20260503185725 20 13 3.2 6.4 0.00 0.00 0.00 48 1011.5
20260503185220 20 2 3.2 3.2 0.00 0.00 0.00 48 1011.6
20260503184715 20 9 3.2 3.2 0.00 0.00 0.00 49 1011.4
20260503184212 20 269 4.8 8.0 0.00 0.00 0.00 51 1011.5
20260503183708 20 322 0.0 0.0 0.00 0.00 0.00 50 1011.7
20260503183206 20 2 1.6 1.6 0.00 0.00 0.00 49 1011.6
20260503182704 20 253 4.8 6.4 0.00 0.00 0.00 50 1011.6
20260503182202 20 222 0.0 0.0 0.00 0.00 0.00 53 1011.6
20260503181658 20 136 1.6 1.6 0.00 0.00 0.00 50 1011.8
20260503181155 20 298 0.0 1.6 0.00 0.00 0.00 52 1011.8
20260503180652 20 259 4.8 6.4 0.00 0.00 0.00 52 1011.8
20260503180150 19 253 4.8 8.0 0.00 0.00 0.00 53 1011.7
20260503175647 19 243 0.0 0.0 0.00 0.00 0.00 52 1011.7
20260503175144 18 271 1.6 1.6 0.00 0.00 0.00 53 1011.7
20260503174640 18 277 6.4 8.0 0.00 0.00 0.00 53 1011.5
20260503174138 18 276 4.8 6.4 0.00 0.00 0.00 55 1011.6
20260503173632 18 236 4.8 6.4 0.00 0.00 0.00 55 1011.4
20260503173129 18 247 8.0 8.0 0.00 0.00 0.00 55 1011.8
20260503172626 18 27 3.2 3.2 0.00 0.00 0.00 55 1011.5
20260503172124 18 228 4.8 6.4 0.00 0.00 0.00 55 1011.4
20260503171620 17 259 4.8 8.0 0.00 0.00 0.00 57 1011.7
20260503171117 18 251 4.8 6.4 0.00 0.00 0.00 56 1011.5
20260503170615 18 243 1.6 3.2 0.00 0.00 0.00 57 1011.5
20260503170111 17 270 3.2 6.4 0.00 0.00 0.00 60 1011.4
20260503151006 14 24 3.2 3.2 0.00 0.00 0.00 72 1011.0
20260503150503 13 19 1.6 1.6 0.00 0.00 0.00 74 1010.9
20260503131355 12 273 1.6 1.6 0.00 0.00 0.00 81 1009.1
20260503130853 12 269 0.0 0.0 0.00 0.00 0.00 81 1009.0
20260503130350 12 252 0.0 0.0 0.00 0.00 0.00 81 1008.8
20260503110744 13 305 1.6 3.2 0.00 0.00 0.00 78 1008.3
20260503110241 13 270 3.2 3.2 0.00 0.00 0.00 78 1008.5
20260503100208 13 322 0.0 1.6 0.00 0.00 0.00 76 1008.1
20260503090132 15 25 4.8 8.0 0.00 0.00 0.00 74 1008.1
20260503081602 15 255 3.2 3.2 0.00 0.00 0.00 72 1008.5
20260503081059 15 239 3.2 3.2 0.00 0.00 0.00 71 1008.5
20260503080554 16 238 4.8 8.0 0.00 0.00 0.00 70 1008.5
20260503072529 16 258 1.6 1.6 0.00 0.00 0.00 70 1008.4
20260503072026 16 276 3.2 6.4 0.00 0.00 0.00 70 1008.5
20260503071523 17 233 1.6 3.2 0.00 0.00 0.00 70 1008.3
20260503071019 17 242 4.8 6.4 0.00 0.00 0.00 70 1008.4
20260503070516 17 270 1.6 1.6 0.00 0.00 0.00 70 1008.3
20260503054940 18 210 3.2 3.2 0.00 0.00 0.00 67 1008.2
20260503054436 18 258 3.2 6.4 0.00 0.00 0.00 67 1008.2
20260503053934 18 260 8.0 9.7 0.00 0.00 0.00 66 1008.3
20260503053431 18 282 4.8 6.4 0.00 0.00 0.00 66 1008.3
20260503052927 19 248 4.8 8.0 0.00 0.00 0.00 66 1008.2
20260503052425 19 244 3.2 3.2 0.00 0.00 0.00 65 1008.4
20260503051921 19 323 1.6 3.2 0.00 0.00 0.00 65 1008.2
20260503051417 19 240 6.4 8.0 0.00 0.00 0.00 65 1008.3
20260503050915 20 224 3.2 3.2 0.00 0.00 0.00 65 1008.0
20260503050410 20 298 3.2 3.2 0.00 0.00 0.00 63 1008.2
20260503045908 20 257 1.6 3.2 0.00 0.00 0.00 63 1008.1
20260503045406 20 244 3.2 3.2 0.00 0.00 0.00 63 1008.1
20260503044902 20 246 3.2 3.2 0.00 0.00 0.00 63 1008.3
20260503044359 20 262 3.2 3.2 0.00 0.00 0.00 62 1008.1
20260503043856 20 290 3.2 3.2 0.00 0.00 0.00 62 1007.9
20260503043353 20 243 1.6 1.6 0.00 0.00 0.00 62 1007.8
20260503042849 20 207 3.2 3.2 0.00 0.00 0.00 60 1007.9
20260503042346 21 235 1.6 1.6 0.00 0.00 0.00 60 1007.6
20260503041842 21 253 0.0 1.6 0.00 0.00 0.00 59 1007.6
20260503041340 21 117 0.0 1.6 0.00 0.00 0.00 58 1007.7
20260503040837 21 257 1.6 3.2 0.00 0.00 0.00 58 1007.6
20260503040335 21 242 4.8 9.7 0.00 0.00 0.00 57 1007.6
20260503035831 21 27 3.2 3.2 0.00 0.00 0.00 57 1007.4
20260503035328 21 295 1.6 1.6 0.00 0.00 0.00 57 1007.4
20260503034825 22 219 1.6 1.6 0.00 0.00 0.00 57 1007.0
20260503034323 22 244 3.2 3.2 0.00 0.00 0.00 58 1007.0
20260503033820 22 229 1.6 3.2 0.00 0.00 0.00 57 1007.2
20260503033317 22 207 1.6 1.6 0.00 0.00 0.00 56 1007.0
20260503032815 22 253 1.6 3.2 0.00 0.00 0.00 56 1007.2
20260503032314 22 247 1.6 1.6 0.00 0.00 0.00 56 1006.9
20260503031811 23 252 1.6 1.6 0.00 0.00 0.00 55 1007.0
20260503031309 23 106 1.6 1.6 0.00 0.00 0.00 54 1006.8
20260503030805 23 243 3.2 6.4 0.00 0.00 0.00 53 1006.8
20260503030301 23 254 3.2 6.4 0.00 0.00 0.00 53 1006.6
20260503025758 23 243 3.2 6.4 0.00 0.00 0.00 53 1006.6
20260503025256 23 241 3.2 6.4 0.00 0.00 0.00 52 1006.7
20260503024752 24 249 1.6 1.6 0.00 0.00 0.00 52 1006.5
20260503024249 24 260 8.0 11.3 0.00 0.00 0.00 52 1006.6
20260503023746 25 268 3.2 6.4 0.00 0.00 0.00 51 1006.6
20260503023243 25 277 3.2 3.2 0.00 0.00 0.00 50 1006.4
20260503022739 25 220 3.2 3.2 0.00 0.00 0.00 50 1006.5
20260503022234 25 252 3.2 3.2 0.00 0.00 0.00 48 1006.6
20260503021731 26 238 4.8 6.4 0.00 0.00 0.00 46 1006.4
20260503021227 26 263 6.4 8.0 0.00 0.00 0.00 44 1006.5
20260503020725 26 265 3.2 3.2 0.00 0.00 0.00 43 1006.3
20260503020222 26 276 3.2 3.2 0.00 0.00 0.00 44 1006.5
20260503015719 26 260 4.8 6.4 0.00 0.00 0.00 46 1006.4
20260503015216 27 261 3.2 3.2 0.00 0.00 0.00 45 1006.3
20260503014711 27 270 6.4 9.7 0.00 0.00 0.00 43 1006.4
20260503014210 27 248 4.8 6.4 0.00 0.00 0.00 42 1006.4
20260503013706 27 295 4.8 6.4 0.00 0.00 0.00 42 1006.5
20260503013204 27 252 6.4 9.7 0.00 0.00 0.00 41 1006.5
20260503012702 27 279 4.8 6.4 0.00 0.00 0.00 39 1006.4
20260503012158 28 293 3.2 6.4 0.00 0.00 0.00 37 1006.3
20260503011654 28 245 6.4 8.0 0.00 0.00 0.00 36 1006.3
20260503011152 28 245 4.8 6.4 0.00 0.00 0.00 35 1006.1
20260503010648 28 244 4.8 6.4 0.00 0.00 0.00 34 1006.1
20260503010145 28 229 6.4 8.0 0.00 0.00 0.00 35 1006.4
20260503005642 28 257 1.6 3.2 0.00 0.00 0.00 36 1006.3
20260503005139 28 268 1.6 1.6 0.00 0.00 0.00 37 1006.3
20260503004635 28 238 3.2 3.2 0.00 0.00 0.00 35 1006.4
20260503004134 28 236 3.2 3.2 0.00 0.00 0.00 36 1006.2
20260503003631 29 259 1.6 3.2 0.00 0.00 0.00 37 1006.3
20260503003128 29 255 3.2 3.2 0.00 0.00 0.00 33 1006.3
20260503002625 28 259 3.2 3.2 0.00 0.00 0.00 34 1006.3
20260503002121 28 252 4.8 6.4 0.00 0.00 0.00 34 1006.5
20260503001617 30 307 4.8 6.4 0.00 0.00 0.00 34 1006.4
20260503001115 30 269 0.0 0.0 0.00 0.00 0.00 30 1006.4
20260503000612 30 50 1.6 1.6 0.00 0.00 0.00 29 1006.3
20260503000109 29 23 4.8 6.4 0.00 0.00 0.00 29 1006.5
20260502235606 30 28 0.0 1.6 0.00 0.00 0.00 28 1006.6
20260502235104 30 14 0.0 0.0 0.00 0.00 0.00 27 1006.6
20260502234559 30 286 1.6 3.2 0.00 0.00 0.00 26 1006.5
20260502234057 30 38 0.0 1.6 0.00 0.00 0.00 23 1006.6
20260502233557 30 33 1.6 1.6 0.00 0.00 0.00 22 1006.7
20260502233055 30 135 1.6 1.6 0.00 0.00 0.00 22 1006.8
20260502232551 30 224 6.4 8.0 0.00 0.00 0.00 21 1007.1
20260502232048 30 244 3.2 6.4 0.00 0.00 0.00 22 1006.8
20260502231545 31 269 0.0 1.6 0.00 0.00 0.00 21 1007.1
20260502231043 31 23 0.0 1.6 0.00 0.00 0.00 21 1006.9
20260502230541 31 278 1.6 3.2 0.00 0.00 0.00 22 1007.0
20260502230039 31 355 1.6 1.6 0.00 0.00 0.00 23 1007.2
20260502225534 31 3 4.8 8.0 0.00 0.00 0.00 23 1007.4
20260502225032 31 253 4.8 6.4 0.00 0.00 0.00 23 1007.3
20260502224528 31 276 3.2 3.2 0.00 0.00 0.00 22 1007.5
20260502224025 31 235 3.2 6.4 0.00 0.00 0.00 22 1007.6
20260502223523 30 246 3.2 3.2 0.00 0.00 0.00 23 1007.6
20260502223021 31 339 1.6 3.2 0.00 0.00 0.00 23 1008.0
20260502222518 30 198 1.6 3.2 0.00 0.00 0.00 23 1007.9
20260502222014 31 264 4.8 6.4 0.00 0.00 0.00 21 1008.3
20260502221510 30 298 3.2 3.2 0.00 0.00 0.00 22 1008.1
20260502221008 31 260 8.0 9.7 0.00 0.00 0.00 22 1008.3
20260502220503 31 147 8.0 11.3 0.00 0.00 0.00 22 1008.3
20260502220000 30 77 1.6 1.6 0.00 0.00 0.00 22 1008.3
20260502215457 30 203 3.2 6.4 0.00 0.00 0.00 23 1008.6
20260502214953 30 274 4.8 6.4 0.00 0.00 0.00 23 1008.5
20260502214451 30 230 4.8 6.4 0.00 0.00 0.00 23 1008.5
20260502213948 31 246 1.6 1.6 0.00 0.00 0.00 23 1008.6
20260502213445 31 257 4.8 6.4 0.00 0.00 0.00 21 1008.7
20260502212943 30 147 4.8 8.0 0.00 0.00 0.00 21 1008.8
20260502212442 30 210 6.4 8.0 0.00 0.00 0.00 20 1008.9
20260502211939 30 238 3.2 3.2 0.00 0.00 0.00 21 1008.9
20260502211434 30 271 8.0 9.7 0.00 0.00 0.00 20 1009.1
20260502210932 30 321 3.2 3.2 0.00 0.00 0.00 18 1009.3